Regional Weather Roundup
Issued by NWS

Home | Current Version | Previous Version | Graphics & Text | Print | Product List | Glossary On
Versions: 1 2 3 4 5 6 7 8 9 10 11 12 13 14 15 16 17 18 19 20 21 22 23 24 25 26 27 28 29 30 31 32 33 34 35 36 37 38 39 40 41 42 43 44 45 46 47 48 49 50
000
ASUS43 KLOT 281906
RWRIL

ILLINOIS REGIONAL WEATHER ROUNDUP
NATIONAL WEATHER SERVICE CHICAGO/ROMEOVILLE IL
200 PM CDT MON JUL 28 2014

NOTE: "FAIR" INDICATES FEW OR NO CLOUDS BELOW 12,000 FEET WITH NO
SIGNIFICANT WEATHER AND/OR OBSTRUCTIONS TO VISIBILITY.

* THESE STATIONS ARE NOT UNDER NWS QUALITY CONTROL. THEY ALSO MAY NOT
  REPORT WEATHER SUCH AS PRECIPITATION OR FOG.

ILZ001-002-007-009-015-016-024-282000-
NORTHWEST ILLINOIS

CITY           SKY/WX    TMP DP  RH WIND       PRES   REMARKS
MOLINE         MOSUNNY   72  47  40 NE13G21   30.14S
STERLING*      MOSUNNY   73  52  46 N13G18    30.13S
SAVANNA*       PTSUNNY   73  46  39 N9        30.13F
$$

ILZ003-004-008-010-011-017-018-282000-
NORTH CENTRAL ILLINOIS

CITY           SKY/WX    TMP DP  RH WIND       PRES   REMARKS
ROCKFORD       PTSUNNY   71  46  40 NE15G24   30.13S
FREEPORT*      MOSUNNY   71  50  48 N10G18    30.15F
ROCHELLE*      MOSUNNY   71  48  44 N17G23    30.12S
DE KALB*       CLOUDY    66  48  53 N13       30.12S
PERU*          PTSUNNY   71  50  48 N14G20    30.12S
$$

ILZ005-006-012>014-019>023-282000-
NORTHEAST ILLINOIS

CITY           SKY/WX    TMP DP  RH WIND       PRES   REMARKS
CHICAGO-OHARE  MOSUNNY   71  44  37 N16G25    30.08S
CHICAGO-MIDWAY MOSUNNY   71  43  36 N21G30    30.09R
AURORA         MOSUNNY   71  47  42 N14       30.10S
LANSING*       SUNNY     65  45  48 N14G25    30.09S
JOLIET*        SUNNY     70  42  35 N15       30.10S
WAUKEGAN       SUNNY     68  47  46 N14G22    30.08S
DUPAGE AIRPORT MOSUNNY   72  48  42 N15       30.09S
KANKAKEE*      PTSUNNY   71  52  51 NW9G17    30.08R
WHEELING       SUNNY     70  47  43 NE13G21   30.10S
MORRIS*        MOSUNNY   72  49  45 CALM      30.09S
ROMEOVILLE*    MOSUNNY   70  43  37 NE12      30.09S
NORTHERLY ISL    N/A     63  46  54 NW18        N/A
$$

LMZ740>746-282000-
SOUTHERN LAKE MICHIGAN

STATION/POSITION SKY/WX   TEMP    WIND        PRES    VSBY  WAVE
                          AIR SEA DIR/SP/G                  HT/PER
                          (F)     (DEG/KT/KT) (MB)    (MI)  (FT/S)
SOUTHERN BUOY              56 60  330/ 21/ 23 1017.9R         7/ 7
WAUKEGAN HARBOR            60      30/ 15/ 17   N/A
HARRISON CRIB              60     340/ 23/ 28   N/A
BURNHAM HARBOR             63     330/ 16/ 20   N/A
CALUMET HARBOR             62     340/ 16/ 23 1017.8S
MICHIGAN CITY              58     320/ 21/ 25   N/A
MICHIGAN CITY 6N           59 67  350/ 16/ 21   N/A           8/ 8
ST. JOSEPH                 58 66  340/ 17/ 25   N/A           9/ 7
$$

ILZ025>027-034>036-040-047-049-050-058-095>099-282000-
WEST-CENTRAL ILLINOIS

CITY           SKY/WX    TMP DP  RH WIND       PRES   REMARKS
QUINCY         PTSUNNY   73  53  49 NW14      30.15S
GALESBURG*     MOSUNNY   73  53  50 N12       30.14S
MACOMB*        MOSUNNY   71  53  53 N12       30.16F
JACKSONVILLE*  MOSUNNY   74  56  54 N15       30.14S
PITTSFIELD*    MOSUNNY   74  55  51 NW12      30.15S
$$

ILZ028>032-037-038-041>044-048-051>054-059>061-282000-
CENTRAL ILLINOIS

CITY           SKY/WX    TMP DP  RH WIND       PRES   REMARKS
PONTIAC        SUNNY     72  52  49 N14       30.09S
DECATUR        PTSUNNY   72  55  55 N14G21    30.10R
PEORIA         MOSUNNY   72  50  45 N12G17    30.11F
LACON*         MOSUNNY   73  51  45 N8        30.11R
LINCOLN*       PTSUNNY   72  54  53 N9G20     30.09S
SPRINGFIELD      N/A     74  55  51 N10       30.12R
TAYLORVILLE    MOSUNNY   72  54  53 N14G20    30.10S
$$

ILZ033-039-045-046-055>057-062-063-282000-
EAST-CENTRAL ILLINOIS

CITY           SKY/WX    TMP DP  RH WIND       PRES   REMARKS
CHAMPAIGN      PTSUNNY   72  57  59 NW15      30.08R
DANVILLE*      PTSUNNY   70  57  65 NW8       30.03S HAZE
RANTOUL*       PTSUNNY   72  51  46 N16       30.08S
MATTOON        MOSUNNY   71  54  54 NW17      30.07S
PARIS*         PTSUNNY   71  57  61 NW9       30.07R
$$

ILZ079-100>102-282000-
SOUTHWEST ILLINOIS

CITY           SKY/WX    TMP DP  RH WIND       PRES   REMARKS
ALTON          PTSUNNY   73  63  68 N14       30.11F
BELLEVILLE     MOSUNNY   78  62  57 NW15G22   30.08F
CAHOKIA*       CLOUDY    79  59  50 N16       30.10F HX  80
SPARTA*        PTSUNNY   75  61  60 NW9G16    30.09F
$$

ILZ064>066-069>071-074>076-080>082-084>086-088>090-092>094-282000-
SOUTH-CENTRAL ILLINOIS

CITY           SKY/WX    TMP DP  RH WIND       PRES   REMARKS
CARBONDALE     MOSUNNY   79  61  53 NW15      30.07F HX  80
CAIRO*         PTSUNNY   81  64  55 NW6       30.06F HX  82
EFFINGHAM*     CLOUDY    72  52  49 NW14      30.08S
MARION         PTSUNNY   77  61  57 NW9       30.07F
MT. VERNON     MOSUNNY   77  59  53 N8        30.07F
CENTRALIA*     PTSUNNY   79  57  47 N13G21    30.08S HX  80
SALEM*         MOSUNNY  N/A N/A N/A NW15      30.08S
METROPOLIS*    MOSUNNY   82  57  42 N9        30.04F HX  81
$$

ILZ067-068-072-073-078-083-087-091-282000-
SOUTHEAST ILLINOIS

CITY           SKY/WX    TMP DP  RH WIND       PRES   REMARKS
LAWRENCEVILLE  MOSUNNY   76  59  55 NW17      30.04F
FLORA*         SUNNY     75  57  53 N13G20    30.07S
HARRISBURG*    PTSUNNY   76  63  64 NW10      30.07S
ROBINSON*      MOSUNNY   76  59  56 N12       30.06S
$$

ABBREVIATIONS USED IN REMARKS
   TC - TEMPERATURE IN CELSIUS
  WCI - WIND CHILL INDEX
   HX - HEAT INDEX
  VSB - VISIBILITY
$$




USA.gov is the U.S. government's official web portal to all federal, state and local government web resources and services.